Location: Ammerl�gen
(47.2167°N, 9.6000°E)
Time: 09:19:18
(UTC+00:00)

ISS - Pass Details

Date: 05 October 2021
Orbit: 417 x 423 km, 51.6° (Epoch: 17 October)

Event Time Altitude Azimuth Distance (km) Brightness Sun altitude
Rises 18:21:20 0° 288° (WNW) 2,365 1.8 -15.8°
Reaches altitude 10° 18:23:48 10° 270° (W) 1,498 0.3 -16.2°
Maximum altitude 18:26:17 19° 222° (SW) 1,057 -1.4 -16.6°
Enters shadow 18:28:43 10° 175° (S) 1,483 -1.1 -17.0°
